Starlink 5849

operational
NORAD ID: 55924 Int'l Des: 2023-037 Owner: SPXS Country: US Constellation: starlink
LEOCIRCULAR

About Starlink 5849

Description loading...

Live Position

Loading 3D Globe...

Upcoming Passes

Altitude History

Altitude vs Time

uPlot chart will show altitude changes over time

Two-Line Element Set

1 55924U 23037L 25303.82607174 .00001305 00000-0 11716-3 0 9996
2 55924 69.9992 252.0544 0002927 270.9645 89.1178 14.98327937144529
Epoch: Oct 30, 2025 • Age: 9 hours

Current Status

Altitude 583.0 km
Velocity 7.57 km/s
Sub-Earth Point 57.65°N, 68.74°W
Launch Date Mar 17, 2023
Age 2.6 years
Type internet

Technical Details

Classification Payload
Mass 305.00 kg
Dry Mass 290.00 kg
Total Mass 305.00 kg
Length 0.20 m
Diameter 2.80 m
Span 9.00 m
Shape Box + pan
Manufacturer SPXS
Bus Type Starlink
Phase Status In Orbit
Owner/State SPXS/US

Large Constellations

Loading constellations...